Weather History for Jackson, WY

Change the Weather History Date:

Sunday, January 20, 2013

  Actual Average Record
Temperature  
Mean Temperature 7 °F -  
Max Temperature 19 °F 27 °F 44 °F (1971)
Min Temperature -5 °F 1 °F -33 °F (1960)
Degree Days  
Heating Degree Days 58    
Moisture  
Dew Point 0 °F    
Average Humidity 90    
Maximum Humidity 100    
Minimum Humidity 73    
Precipitation  
Precipitation 0.00 in - - ()
Sea Level Pressure  
Sea Level Pressure 30.34 in    
Wind  
Wind Speed 4 mph (NNE)    
Max Wind Speed 8 mph    
Max Gust Speed -    
Visibility 10 miles    
Events      
Averages and records for this station are not official NWS values.
T = Trace of Precipitation, MM = Missing Value Source: NWS Daily Summary

Daily Weather History Graph

Daily Weather History Graph

Search for Another Location

Airport:

Trip Planner

Search our weather history database for the weather conditions in past years. The results will help you decide how hot, cold, wet, or windy it might be!

Date:

Astronomy

Jan. 20, 2013 Rise Set
Actual Time 7:49 AM MST 5:18 PM MST
Civil Twilight 7:18 AM MST 5:50 PM MST
Nautical Twilight 6:43 AM MST 6:25 PM MST
Astronomical Twilight 6:09 AM MST 6:59 PM MST
Moon 12:22 PM MST (1/20) 2:24 AM MST (1/20)
Length of Visible Light 10h 31m
Length of Day
9h 28m
Waxing Gibbous, 67% of the Moon is Illuminated
Jan 20
Waxing Gibbous
Jan 26
Full
Feb 3
Last Quarter
Feb 10
New
Feb 17
First Quarter

Hourly Weather History & Observations

Time (MST) Temp. Windchill Dew Point Humidity Pressure Visibility Wind Dir Wind Speed Gust Speed Precip Events Conditions
12:15 AM -0.4 °F -12.0 °F -2.2 °F 92% 30.34 in 10.0 mi ENE 5.8 mph - N/A   Clear
12:35 AM -0.4 °F -12.0 °F -2.2 °F 92% 30.35 in 10.0 mi North 5.8 mph - N/A   Clear
12:55 AM -2.2 °F -10.4 °F -4.0 °F 92% 30.34 in 10.0 mi NNE 3.5 mph - N/A   Clear
1:15 AM -4.0 °F -17.8 °F -5.8 °F 92% 30.35 in 10.0 mi NNW 6.9 mph - N/A   Clear
1:35 AM -0.4 °F -8.3 °F -2.2 °F 92% 30.35 in 10.0 mi NNE 3.5 mph - N/A   Clear
1:55 AM -0.4 °F -14.7 °F -0.4 °F 100% 30.35 in 10.0 mi North 8.1 mph - N/A   Clear
2:15 AM -0.4 °F -13.4 °F -2.2 °F 92% 30.35 in 10.0 mi North 6.9 mph - N/A   Clear
2:35 AM -5.8 °F -19.9 °F -5.8 °F 100% 30.35 in 10.0 mi North 6.9 mph - N/A   Clear
2:55 AM -5.8 °F -14.5 °F -7.6 °F 92% 30.36 in 10.0 mi NNE 3.5 mph - N/A   Clear
3:15 AM -5.8 °F -21.2 °F -5.8 °F 100% 30.35 in 10.0 mi North 8.1 mph - N/A   Clear
3:35 AM -2.2 °F -15.6 °F -4.0 °F 92% 30.35 in 10.0 mi NNE 6.9 mph - N/A   Clear
3:55 AM -2.2 °F -12.5 °F -4.0 °F 92% 30.35 in 10.0 mi ENE 4.6 mph - N/A   Clear
4:15 AM -2.2 °F -10.4 °F -4.0 °F 92% 30.35 in 10.0 mi ENE 3.5 mph - N/A   Clear
4:35 AM -2.2 °F - -2.2 °F 100% 30.36 in 10.0 mi Calm Calm - N/A   Clear
5:15 AM -2.2 °F -14.2 °F -5.8 °F 85% 30.36 in 10.0 mi North 5.8 mph - N/A   Clear
5:35 AM -2.2 °F -10.4 °F -5.8 °F 85% 30.36 in 10.0 mi North 3.5 mph - N/A   Clear
5:55 AM -2.2 °F -10.4 °F -4.0 °F 92% 30.35 in 10.0 mi NNE 3.5 mph - N/A   Clear
6:15 AM -4.0 °F -16.3 °F -5.8 °F 92% 30.35 in 10.0 mi NNE 5.8 mph - N/A   Clear
6:35 AM -2.2 °F - -5.8 °F 85% 30.35 in 10.0 mi Calm Calm - N/A   Clear
6:51 AM -2.2 °F - -5.8 °F 85% 30.36 in 10.0 mi Calm Calm - N/A   Clear
7:55 AM -5.8 °F -14.5 °F -7.6 °F 92% 30.37 in 10.0 mi ENE 3.5 mph - N/A   Clear
8:52 AM -0.4 °F - -2.2 °F 92% 30.38 in 10.0 mi Calm Calm - N/A   Clear
9:51 AM 3.2 °F -6.2 °F 1.4 °F 92% 30.39 in 10.0 mi North 4.6 mph - N/A   Clear
10:53 AM 6.8 °F - 3.2 °F 85% 30.38 in 10.0 mi Calm Calm - N/A   Clear
11:51 AM 8.6 °F 2.0 °F 5.0 °F 85% 30.37 in 10.0 mi SE 3.5 mph - N/A   Clear
1:54 PM 15.8 °F - 10.4 °F 79% 30.32 in 10.0 mi Calm Calm - N/A   Clear
2:53 PM 19.4 °F - 12.2 °F 74% 30.31 in 10.0 mi Calm Calm - N/A   Clear
3:53 PM 19.4 °F - 12.2 °F 74% 30.30 in 10.0 mi Calm Calm - N/A   Clear
4:52 PM 17.6 °F - 10.4 °F 73% 30.30 in 10.0 mi Calm Calm - N/A   Clear
5:52 PM 14.0 °F - 8.6 °F 79% 30.31 in 10.0 mi Calm Calm - N/A   Clear
6:51 PM 8.6 °F 2.0 °F 5.0 °F 85% 30.32 in 10.0 mi North 3.5 mph - N/A   Clear
7:55 PM 6.8 °F -5.9 °F 3.2 °F 85% 30.32 in 10.0 mi North 8.1 mph - N/A   Clear
8:55 PM 5.0 °F -4.1 °F 3.2 °F 92% 30.33 in 10.0 mi North 4.6 mph - N/A   Clear
9:15 PM 3.2 °F -6.2 °F 1.4 °F 92% 30.32 in 10.0 mi North 4.6 mph - N/A   Clear
9:35 PM -0.4 °F -12.0 °F -0.4 °F 100% 30.33 in 10.0 mi North 5.8 mph - N/A   Clear
9:55 PM 3.2 °F -9.1 °F 3.2 °F 100% 30.33 in 10.0 mi NNE 6.9 mph - N/A   Clear
10:15 PM 3.2 °F -7.8 °F 1.4 °F 92% 30.34 in 10.0 mi NNE 5.8 mph - N/A   Clear
10:35 PM 5.0 °F -4.1 °F 3.2 °F 92% 30.34 in 10.0 mi NNW 4.6 mph - N/A   Clear
10:55 PM 1.4 °F -6.2 °F -0.4 °F 92% 30.34 in 10.0 mi NNE 3.5 mph - N/A   Clear
11:15 PM 3.2 °F -4.2 °F 1.4 °F 92% 30.34 in 10.0 mi NNE 3.5 mph - N/A   Clear
11:35 PM 6.8 °F -0.1 °F 5.0 °F 92% 30.34 in 10.0 mi NNE 3.5 mph - N/A   Clear
11:55 PM 3.2 °F -4.2 °F 1.4 °F 92% 30.34 in 10.0 mi NNE 3.5 mph - N/A   Clear